Weather History for KBIL - August, 2014

Change the Weather History Date:

Friday, August 8, 2014

  Actual Average Record
Temperature  
Mean Temperature 77 °F 74 °F  
Max Temperature 92 °F 88 °F 100 °F (1958)
Min Temperature 61 °F 59 °F 39 °F (1939)
Degree Days  
Heating Degree Days 0 0  
Month to date heating degree days 0 0  
Since 1 June heating degree days 90 111  
Since 1 July heating degree days 1 15  
Cooling Degree Days 12 9  
Month to date cooling degree days 79 72  
Year to date cooling degree days 418 430  
Since 1 June cooling degree days 402 413  
Growing Degree Days 26 (Base 50)    
Moisture  
Dew Point 44 °F    
Average Humidity 35    
Maximum Humidity 56    
Minimum Humidity 14    
Precipitation  
Precipitation 0.00 in 0.03 in 0.43 in (1995)
Month to date precipitation T 0.23  
Year to date precipitation 9.92 9.53  
Snow  
Snow 0.00 in 0.00 in T in (1954)
Month to date snowfall 0.0 0.0  
Since 1 June snowfall T 0.0  
Since 1 July snowfall 0.0 0.0  
Snow Depth 0.00 in    
Sea Level Pressure  
Sea Level Pressure 29.86 in    
Wind  
Wind Speed 11 mph (SW)    
Max Wind Speed 25 mph    
Max Gust Speed 30 mph    
Visibility 10 miles    
Events      
T = Trace of Precipitation, MM = Missing Value Source: NWS Daily Summary

Daily Weather History Graph

Daily Weather History Graph

Search for Another Location

Airport or City:

Trip Planner

Search our weather history database for the weather conditions in past years. The results will help you decide how hot, cold, wet, or windy it might be!

Date:

Astronomy

Aug. 08, 2014 Rise Set
Actual Time 6:05 AM MDT 8:33 PM MDT
Civil Twilight 5:32 AM MDT 9:06 PM MDT
Nautical Twilight 4:50 AM MDT 9:48 PM MDT
Astronomical Twilight 4:02 AM MDT 10:35 PM MDT
Moon 6:48 PM MDT (8/8) 3:39 AM MDT (8/8)
Length of Visible Light 15h 34m
Length of Day
14h 27m
Waxing Gibbous, 94% of the Moon is Illuminated
Aug 8
Waxing Gibbous
Aug 10
Full
Aug 17
Last Quarter
Aug 25
New
Sep 2
First Quarter

Hourly Weather History & Observations

Time (MDT) Temp. Dew Point Humidity Pressure Visibility Wind Dir Wind Speed Gust Speed Precip Events Conditions
12:53 AM 70.0 °F 46.9 °F 44% 29.86 in 10.0 mi Calm Calm - N/A   Clear
1:53 AM 69.1 °F 46.0 °F 44% 29.87 in 10.0 mi SW 9.2 mph - N/A   Partly Cloudy
2:53 AM 66.0 °F 46.9 °F 50% 29.87 in 10.0 mi SW 9.2 mph - N/A   Partly Cloudy
3:53 AM 68.0 °F 46.0 °F 45% 29.87 in 10.0 mi WSW 13.8 mph - N/A   Clear
4:53 AM 64.9 °F 46.9 °F 52% 29.88 in 10.0 mi SW 11.5 mph - N/A   Clear
5:53 AM 62.1 °F 46.9 °F 58% 29.88 in 10.0 mi SW 12.7 mph - N/A   Scattered Clouds
6:53 AM 62.1 °F 46.9 °F 58% 29.90 in 10.0 mi SW 11.5 mph - N/A   Partly Cloudy
7:53 AM 64.0 °F 48.0 °F 56% 29.90 in 10.0 mi SW 15.0 mph - N/A   Partly Cloudy
8:53 AM 66.9 °F 48.9 °F 52% 29.91 in 10.0 mi SW 12.7 mph - N/A   Partly Cloudy
9:53 AM 72.0 °F 51.1 °F 48% 29.91 in 10.0 mi SSW 9.2 mph - N/A   Partly Cloudy
10:53 AM 77.0 °F 48.9 °F 37% 29.90 in 10.0 mi SW 11.5 mph - N/A   Partly Cloudy
11:53 AM 81.0 °F 50.0 °F 34% 29.88 in 10.0 mi SSW 6.9 mph - N/A   Partly Cloudy
12:53 PM 84.9 °F 46.9 °F 27% 29.87 in 10.0 mi Calm Calm - N/A   Partly Cloudy
1:53 PM 88.0 °F 46.9 °F 24% 29.85 in 10.0 mi Variable 5.8 mph - N/A   Scattered Clouds
2:53 PM 91.9 °F 35.1 °F 13% 29.82 in 10.0 mi ESE 16.1 mph - N/A   Scattered Clouds
3:53 PM 91.9 °F 35.1 °F 13% 29.80 in 10.0 mi ESE 16.1 mph - N/A   Mostly Cloudy
4:53 PM 90.0 °F 34.0 °F 14% 29.81 in 10.0 mi SSE 13.8 mph 20.7 mph N/A   Mostly Cloudy
5:53 PM 89.1 °F 35.1 °F 15% 29.81 in 10.0 mi SSE 9.2 mph - N/A   Mostly Cloudy
6:53 PM 87.1 °F 37.0 °F 17% 29.81 in 10.0 mi South 4.6 mph - N/A   Mostly Cloudy
7:53 PM 82.9 °F 39.9 °F 22% 29.82 in 10.0 mi West 20.7 mph 25.3 mph N/A   Mostly Cloudy
8:10 PM 80.1 °F 46.0 °F 30% 29.93 in 10.0 mi West 21.9 mph - N/A   Mostly Cloudy
8:53 PM 75.9 °F 45.0 °F 33% 29.84 in 10.0 mi WNW 24.2 mph - N/A   Mostly Cloudy
9:53 PM 73.9 °F 45.0 °F 35% 29.87 in 10.0 mi SW 10.4 mph - N/A   Scattered Clouds
10:53 PM 71.1 °F 46.0 °F 41% 29.88 in 10.0 mi SSW 6.9 mph - N/A   Scattered Clouds
11:53 PM 70.0 °F 46.9 °F 44% 29.86 in 10.0 mi WSW 9.2 mph - N/A   Mostly Cloudy